Погода в Самарге

Россия / Приморский край     47°15′06″N   138°48′07″E
темп.,
°C
ветер,
м/с
пор.,
м/с
влажн.,
%
обл.,
%
осадки,
мм/ч
давл.,
гПа
погр.,
м
22 мая, вс
вс2201:00+7в1299100 0.1 1004138
04:00+7всв1199100 0.4 100478
07:00+8ссв1297100 0.1 1004159
10:00+9вюв1193100 0.3 1004306
13:00+11юв328390 0.0 1005451
16:00+11юв2183100 0.1 1004349
19:00+9в2396100 0.1 1006221
22:00+6всв3895100 0.4 1010382
23 мая, пн
пн2301:00+6св2592100 0.0 1011249
04:00+6всв1392100 0.0 1012203
07:00+6в1289100 0.0 1013238
10:00+6всв2486100 0.0 1014446
13:00+8в227494 0.0 1014516
16:00+10вюв3269100 0.0 1012571
19:00+7вюв22795 0.0 1013274
22:00+5сз0189100 0.0 101529
24 мая, вт
вт2401:00+3вюв009489 0.0 101415
04:00+3з009495 0.0 101312
07:00+6в118197 0.0 1013158
10:00+10юв2267100 0.0 1013538
13:00+11юв336996 0.0 1012584
16:00+10юв3476100 0.0 1011522
19:00+8юв1290100 0.0 1012283
22:00+7в1197100 0.1 1013189
25 мая, ср
ср2501:00+7ссз0098100 0.1 101169
04:00+7всв1197100 0.1 101057
07:00+7с019798 0.1 101072
10:00+9св018898 0.1 1009190
13:00+8вюв2295100 0.3 1009137
16:00+8в349097 0.3 1010348
19:00+7всв248267 0.0 1012366
22:00+6св138880 0.0 1014192
26 мая, чт
чт2601:00+5св118982 0.0 101383
04:00+4вюв1194100 0.0 101471
07:00+6вюв008640 0.0 1014211
10:00+11ююв326710 0.0 1013583
13:00+11ююв336799 0.0 1012537
16:00+11ююв3372100 0.0 1011395
19:00+8ю2282100 0.0 1011182
22:00+6юз1194100 0.0 101118